Temp
-13 -13 -13 -13 -13 -13 -13 -13 -13 -13 -12 -12 -12 -12 -12 -12 -12 -12 -12 -12 -12 -12 -12 -12 -11 -11 -11 -12 -12 -12 -12 -12 -12 -12 -12 -12 -12 -12 -12 -12 -12 -12 -12 -12 -12 -12 -12 -12 -12 -12 -12 -12
-13 -13 -13 -13 -13 -13 -13 -13 -13 -13 -13 -12 -12 -12 -12 -12 -12 -12 -12 -12 -12 -12 -12 -12 -12 -12 -12 -12 -12 -12 -12 -12 -12 -12 -12 -12 -12 -13 -12 -12 -12 -12 -12 -12 -12 -12 -12 -12 -12 -12 -12 -12
-14 -13 -13 -13 -13 -13 -13 -13 -13 -13 -13 -13 -13 -12 -12 -12 -13 -13 -12 -12 -12 -12 -12 -12 -12 -12 -12 -12 -12 -12 -12 -12 -12 -12 -12 -12 -13 -13 -13 -13 -12 -12 -12 -12 -12 -12 -12 -12 -12 -12 -12 -12
-14 -14 -13 -13 -13 -14 -13 -13 -13 -13 -13 -13 -13 -12 -12 -12 -13 -13 -13 -12 -12 -12 -12 -12 -12 -12 -12 -12 -12 -12 -12 -12 -12 -12 -12 -12 -13 -13 -13 -13 -13 -13 -13 -13 -13 -13 -13 -12 -12 -12 -12 -12
-14 -14 -14 -14 -14 -14 -13 -13 -13 -13 -13 -13 -13 -13 -13 -13 -13 -13 -13 -13 -13 -13 -13 -13 -12 -12 -12 -12 -12 -12 -12 -12 -12 -12 -12 -12 -13 -13 -13 -13 -13 -13 -13 -13 -13 -13 -13 -13 -13 -13 -13 -13
-14 -14 -14 -14 -14 -14 -14 -13 -13 -13 -13 -13 -13 -13 -13 -13 -13 -13 -13 -13 -13 -13 -13 -13 -12 -12 -12 -12 -12 -12 -12 -12 -12 -12 -12 -12 -12 -13 -13 -13 -13 -13 -13 -13 -13 -13 -13 -13 -13 -13 -13 -13
-14 -14 -14 -14 -14 -14 -14 -14 -14 -14 -13 -13 -13 -13 -13 -13 -13 -13 -13 -13 -13 -13 -13 -13 -13 -13 -13 -13 -13 -13 -13 -13 -13 -13 -13 -13 -13 -13 -13 -13 -13 -13 -13 -13 -13 -13 -13 -13 -13 -13 -13 -13
-14 -15 -15 -14 -14 -14 -14 -14 -14 -14 -14 -14 -14 -13 -13 -13 -13 -13 -13 -13 -13 -13 -13 -13 -13 -13 -13 -13 -13 -13 -13 -13 -13 -13 -13 -13 -13 -13 -13 -13 -13 -13 -13 -13 -13 -13 -13 -13 -13 -13 -13 -13
-14 -14 -14 -15 -14 -14 -14 -14 -14 -14 -14 -14 -14 -14 -14 -14 -13 -13 -13 -13 -13 -13 -13 -13 -13 -13 -13 -13 -13 -13 -13 -13 -13 -13 -13 -13 -13 -13 -13 -13 -13 -13 -13 -13 -13 -13 -13 -13 -13 -13 -13 -13
-14 -14 -14 -15 -15 -15 -14 -14 -14 -14 -14 -14 -14 -14 -14 -14 -14 -14 -14 -14 -13 -13 -14 -13 -13 -13 -13 -13 -13 -13 -14 -14 -14 -14 -14 -13 -14 -14 -14 -14 -14 -14 -14 -13 -13 -14 -14 -14 -14 -13 -13 -13
-15 -15 -15 -15 -15 -15 -15 -15 -14 -14 -14 -14 -14 -14 -14 -14 -14 -14 -14 -14 -14 -14 -14 -14 -14 -14 -14 -14 -14 -14 -14 -14 -14 -14 -14 -14 -14 -14 -14 -14 -14 -14 -14 -14 -14 -14 -14 -14 -14 -14 -13 -13
-15 -15 -15 -15 -15 -15 -15 -15 -14 -14 -14 -14 -15 -15 -14 -14 -14 -14 -14 -14 -14 -14 -14 -14 -14 -14 -14 -14 -14 -14 -14 -14 -14 -14 -14 -14 -14 -14 -14 -14 -14 -14 -14 -14 -14 -14 -14 -14 -14 -14 -14 -14
-15 -15 -15 -15 -15 -15 -15 -15 -15 -15 -15 -14 -15 -15 -15 -15 -14 -14 -14 -14 -14 -14 -15 -15 -14 -14 -14 -14 -14 -14 -14 -14 -14 -14 -14 -14 -14 -14 -14 -14 -14 -14 -14 -14 -14 -14 -14 -14 -14 -14 -14 -14
-15 -15 -15 -15 -15 -15 -15 -15 -15 -15 -15 -15 -15 -15 -15 -15 -15 -14 -14 -14 -15 -15 -15 -15 -15 -15 -15 -14 -14 -14 -15 -15 -15 -15 -15 -15 -15 -15 -15 -15 -15 -15 -15 -15 -15 -14 -14 -14 -14 -14 -14 -14
-15 -15 -15 -15 -15 -15 -15 -15 -16 -15 -15 -15 -15 -15 -15 -15 -15 -15 -15 -15 -15 -15 -15 -15 -15 -15 -15 -15 -15 -15 -15 -15 -15 -15 -15 -15 -15 -15 -15 -15 -15 -15 -15 -15 -15 -15 -15 -15 -15 -15 -14 -14
-16 -16 -16 -16 -16 -15 -16 -16 -16 -16 -16 -16 -16 -15 -15 -15 -15 -15 -15 -15 -15 -15 -15 -15 -15 -15 -15 -15 -15 -15 -15 -16 -16 -16 -16 -16 -16 -16 -16 -16 -15 -16 -16 -15 -15 -15 -15 -15 -15 -15 -15 -15
-16 -16 -16 -16 -16 -16 -16 -16 -16 -16 -16 -16 -16 -16 -16 -16 -16 -16 -16 -16 -16 -16 -16 -16 -15 -15 -16 -16 -16 -16 -16 -16 -16 -16 -16 -16 -16 -16 -16 -16 -16 -16 -16 -16 -16 -16 -16 -15 -15 -15 -15 -15
-16 -16 -16 -16 -16 -16 -16 -16 -16 -17 -17 -17 -17 -17 -17 -16 -16 -16 -16 -16 -16 -16 -16 -16 -16 -16 -16 -16 -16 -17 -17 -16 -16 -16 -17 -16 -16 -16 -16 -16 -16 -16 -16 -16 -16 -16 -16 -16 -16 -16 -15 -15
-16 -16 -17 -17 -17 -16 -16 -17 -17 -17 -17 -17 -17 -17 -17 -17 -17 -17 -17 -17 -17 -17 -17 -17 -17 -17 -17 -17 -17 -17 -17 -17 -17 -17 -17 -17 -17 -17 -17 -17 -17 -16 -16 -16 -16 -16 -16 -16 -16 -16 -16 -16
-17 -16 -17 -17 -17 -17 -18 -18 -18 -18 -18 -18 -17 -17 -17 -17 -17 -17 -17 -17 -17 -17 -17 -17 -17 -17 -17 -17 -17 -17 -17 -17 -17 -17 -17 -17 -17 -17 -17 -17 -17 -17 -17 -17 -17 -17 -16 -16 -16 -16 -16 -16
-17 -17 -17 -17 -17 -17 -18 -18 -18 -18 -18 -18 -18 -18 -18 -17 -18 -18 -18 -18 -17 -17 -17 -17 -17 -17 -17 -17 -17 -17 -17 -17 -17 -17 -17 -17 -17 -17 -17 -17 -17 -17 -17 -17 -17 -17 -17 -17 -17 -16 -16 -16
-18 -18 -17 -17 -17 -17 -17 -17 -18 -18 -18 -18 -18 -18 -18 -18 -18 -18 -18 -18 -18 -17 -17 -17 -17 -17 -17 -17 -17 -17 -17 -17 -17 -17 -17 -17 -17 -17 -17 -17 -17 -17 -17 -17 -17 -17 -17 -17 -17 -17 -17 -17
-18 -18 -18 -18 -18 -18 -17 -18 -18 -18 -18 -19 -18 -18 -18 -18 -18 -18 -18 -18 -18 -18 -17 -17 -17 -17 -17 -18 -17 -17 -17 -17 -17 -17 -17 -17 -17 -17 -17 -17 -17 -17 -17 -17 -17 -17 -17 -17 -17 -17 -17 -17
-18 -18 -18 -18 -18 -18 -18 -18 -18 -18 -18 -18 -18 -18 -19 -19 -19 -18 -18 -18 -18 -17 -17 -17 -17 -18 -18 -18 -18 -18 -18 -18 -18 -18 -17 -17 -17 -17 -17 -17 -18 -17 -18 -18 -18 -18 -18 -18 -18 -18 -18 -18
-18 -18 -18 -18 -18 -18 -18 -18 -18 -18 -18 -18 -18 -18 -19 -19 -19 -19 -18 -18 -18 -18 -17 -17 -18 -18 -18 -18 -18 -18 -18 -18 -18 -18 -18 -18 -18 -18 -18 -18 -18 -18 -18 -18 -18 -18 -18 -18 -18 -18 -18 -18
-18 -18 -19 -18 -18 -18 -18 -18 -18 -18 -18 -18 -19 -19 -19 -19 -19 -19 -18 -19 -18 -18 -18 -18 -18 -19 -19 -19 -19 -19 -19 -19 -19 -19 -19 -19 -19 -19 -19 -19 -19 -19 -19 -19 -19 -19 -19 -18 -18 -18 -18 -18
-19 -19 -19 -19 -19 -19 -19 -19 -19 -19 -18 -18 -18 -18 -19 -19 -19 -19 -18 -19 -19 -19 -19 -19 -19 -19 -19 -19 -19 -19 -19 -19 -19 -19 -19 -19 -19 -19 -19 -19 -19 -19 -19 -19 -19 -19 -19 -19 -19 -19 -19 -19
-19 -19 -19 -19 -19 -19 -19 -19 -19 -19 -19 -19 -18 -19 -19 -19 -19 -19 -19 -19 -20 -19 -20 -19 -19 -19 -19 -19 -19 -19 -19 -19 -19 -20 -20 -20 -20 -20 -19 -19 -19 -19 -19 -19 -19 -19 -19 -19 -19 -19 -19 -19
-19 -19 -19 -19 -19 -19 -19 -19 -19 -19 -19 -19 -19 -19 -19 -19 -20 -20 -20 -20 -20 -20 -20 -20 -19 -19 -20 -19 -19 -19 -19 -20 -20 -20 -20 -20 -20 -20 -20 -20 -20 -20 -20 -20 -20 -19 -20 -20 -19 -19 -19 -20
-19 -19 -19 -19 -19 -19 -19 -19 -19 -19 -19 -19 -19 -19 -20 -20 -20 -20 -20 -20 -20 -20 -20 -20 -19 -19 -19 -20 -20 -19 -19 -19 -20 -20 -20 -20 -20 -20 -20 -20 -20 -20 -20 -20 -20 -20 -20 -20 -20 -20 -20 -20
-20 -20 -20 -20 -20 -20 -20 -20 -20 -19 -20 -20 -19 -20 -20 -20 -20 -20 -20 -20 -20 -20 -20 -20 -20 -20 -19 -20 -20 -20 -19 -19 -20 -20 -20 -20 -20 -20 -20 -20 -20 -20 -20 -20 -20 -20 -20 -20 -20 -20 -20 -20
Height
5743 5743 5742 5741 5741 5741 5742 5742 5742 5743 5744 5743 5743 5744 5745 5746 5746 5747 5747 5747 5748 5750 5751 5752 5752 5754 5756 5758 5761 5764 5766 5768 5769 5772 5774 5776 5777 5779 5780 5782 5783 5785 5786 5788 5789 5790 5792 5793 5794 5795 5797 5797
5739 5739 5739 5739 5739 5739 5740 5739 5739 5739 5740 5739 5739 5739 5740 5741 5741 5742 5743 5743 5744 5746 5747 5748 5749 5750 5753 5755 5757 5759 5761 5763 5765 5767 5769 5771 5773 5775 5776 5778 5779 5781 5782 5784 5785 5786 5788 5789 5790 5792 5793 5794
5736 5736 5736 5736 5736 5736 5736 5736 5735 5736 5736 5735 5735 5735 5736 5736 5737 5738 5740 5740 5741 5743 5744 5746 5747 5749 5750 5751 5753 5755 5757 5759 5761 5762 5764 5766 5768 5770 5772 5774 5775 5777 5778 5780 5781 5782 5784 5785 5787 5788 5789 5790
5733 5733 5733 5733 5733 5732 5732 5732 5732 5732 5733 5733 5732 5732 5732 5733 5734 5735 5737 5739 5740 5741 5743 5744 5745 5747 5747 5747 5749 5751 5753 5755 5756 5758 5760 5762 5764 5766 5768 5769 5771 5772 5774 5775 5777 5778 5780 5781 5783 5784 5785 5786
5730 5730 5730 5730 5730 5730 5729 5730 5730 5729 5730 5730 5730 5730 5730 5730 5731 5733 5735 5736 5737 5738 5740 5741 5743 5744 5744 5745 5746 5748 5750 5751 5753 5754 5756 5757 5759 5761 5763 5765 5766 5768 5769 5771 5772 5774 5775 5777 5778 5780 5781 5782
5726 5726 5727 5727 5726 5726 5726 5727 5727 5727 5727 5727 5728 5728 5728 5729 5730 5731 5732 5734 5735 5736 5737 5738 5740 5741 5741 5742 5744 5745 5747 5748 5750 5751 5752 5754 5755 5757 5758 5760 5761 5763 5764 5766 5767 5769 5771 5772 5774 5775 5777 5778
5722 5722 5723 5723 5723 5723 5723 5724 5724 5725 5725 5725 5726 5726 5727 5727 5728 5729 5730 5731 5732 5733 5734 5735 5736 5737 5738 5739 5740 5741 5743 5744 5746 5747 5749 5750 5752 5753 5754 5755 5757 5758 5760 5761 5763 5764 5766 5768 5769 5771 5772 5774
5719 5719 5718 5718 5719 5720 5719 5720 5721 5721 5721 5722 5723 5723 5724 5724 5725 5726 5727 5728 5729 5730 5731 5731 5732 5733 5734 5735 5736 5737 5738 5740 5741 5743 5744 5746 5747 5748 5750 5751 5752 5754 5755 5756 5758 5759 5761 5763 5765 5766 5768 5769
5716 5716 5715 5714 5714 5716 5716 5716 5717 5717 5717 5717 5718 5719 5720 5720 5721 5722 5723 5724 5725 5726 5727 5727 5728 5729 5730 5731 5732 5733 5734 5735 5737 5738 5740 5741 5742 5744 5745 5746 5748 5749 5750 5752 5753 5755 5756 5758 5760 5761 5763 5764
5712 5712 5712 5712 5711 5712 5712 5712 5713 5712 5712 5713 5714 5714 5715 5716 5717 5718 5718 5719 5720 5721 5722 5723 5724 5725 5726 5727 5728 5729 5730 5731 5732 5734 5735 5736 5738 5739 5740 5742 5743 5744 5746 5747 5749 5750 5752 5753 5755 5756 5758 5759
5708 5708 5708 5708 5708 5707 5707 5707 5708 5708 5708 5709 5710 5710 5710 5711 5712 5713 5714 5715 5715 5716 5717 5717 5719 5720 5721 5722 5723 5724 5725 5726 5727 5729 5730 5732 5733 5734 5736 5737 5739 5740 5741 5743 5744 5746 5747 5748 5750 5751 5753 5754
5703 5704 5705 5704 5703 5703 5703 5703 5703 5705 5705 5704 5705 5706 5706 5706 5707 5707 5708 5709 5710 5711 5712 5712 5713 5714 5716 5717 5718 5719 5720 5721 5722 5723 5725 5726 5728 5729 5731 5732 5734 5735 5736 5738 5739 5741 5742 5744 5745 5746 5748 5749
5699 5699 5700 5700 5700 5699 5699 5700 5700 5700 5699 5700 5701 5701 5701 5702 5702 5703 5703 5704 5705 5706 5707 5707 5708 5709 5710 5711 5712 5713 5714 5715 5717 5718 5719 5720 5722 5723 5725 5727 5728 5730 5731 5733 5734 5736 5737 5738 5740 5741 5742 5743
5694 5694 5695 5695 5695 5695 5694 5695 5696 5695 5694 5695 5696 5696 5696 5697 5698 5699 5699 5699 5700 5701 5702 5703 5703 5704 5705 5706 5707 5708 5709 5710 5711 5713 5714 5715 5717 5718 5720 5721 5723 5725 5726 5727 5729 5730 5731 5733 5734 5735 5737 5738
5688 5688 5689 5689 5689 5689 5689 5690 5690 5690 5690 5691 5691 5691 5692 5692 5693 5694 5694 5695 5695 5696 5697 5698 5699 5699 5700 5701 5702 5703 5704 5705 5706 5708 5709 5710 5712 5713 5715 5716 5718 5719 5721 5722 5723 5724 5726 5727 5728 5729 5731 5732
5683 5683 5683 5683 5683 5684 5684 5684 5685 5685 5686 5686 5687 5687 5687 5688 5689 5689 5690 5690 5690 5691 5692 5692 5693 5694 5695 5696 5697 5698 5699 5700 5701 5703 5704 5705 5706 5708 5709 5711 5712 5713 5715 5716 5717 5719 5720 5721 5722 5723 5724 5726
5679 5678 5678 5678 5679 5679 5679 5680 5681 5681 5681 5682 5682 5682 5682 5683 5684 5684 5685 5685 5685 5686 5687 5687 5689 5689 5689 5690 5691 5692 5693 5695 5696 5697 5698 5699 5701 5702 5703 5705 5706 5707 5709 5710 5711 5713 5714 5715 5716 5717 5718 5719
5676 5675 5675 5675 5675 5674 5675 5676 5677 5676 5676 5676 5676 5677 5676 5677 5678 5678 5679 5679 5680 5681 5681 5683 5684 5684 5685 5685 5686 5687 5688 5689 5690 5692 5693 5694 5695 5696 5697 5699 5700 5701 5703 5704 5705 5706 5707 5709 5710 5711 5712 5713
5673 5673 5673 5673 5672 5672 5672 5673 5673 5672 5671 5670 5671 5671 5671 5671 5672 5672 5673 5673 5674 5675 5676 5677 5678 5679 5680 5680 5681 5681 5682 5683 5684 5685 5686 5688 5689 5690 5692 5693 5694 5695 5697 5698 5699 5700 5701 5702 5703 5704 5706 5707
5668 5669 5669 5669 5668 5668 5669 5668 5669 5669 5666 5665 5666 5665 5665 5666 5666 5666 5667 5667 5667 5668 5669 5671 5672 5673 5674 5674 5675 5676 5676 5677 5678 5679 5680 5682 5683 5684 5686 5687 5688 5689 5691 5692 5693 5694 5695 5696 5697 5698 5699 5700
5662 5662 5663 5663 5663 5663 5663 5662 5663 5663 5661 5661 5662 5660 5659 5661 5661 5661 5661 5661 5661 5662 5663 5664 5665 5666 5668 5668 5669 5670 5670 5671 5672 5673 5674 5675 5677 5678 5679 5680 5682 5683 5684 5685 5686 5687 5689 5689 5690 5692 5693 5694
5657 5657 5656 5656 5657 5657 5658 5657 5657 5656 5656 5657 5656 5655 5655 5656 5655 5654 5655 5655 5654 5655 5656 5657 5658 5660 5661 5662 5663 5664 5664 5665 5666 5667 5668 5669 5670 5672 5673 5674 5675 5676 5678 5679 5680 5681 5682 5683 5684 5686 5687 5688
5652 5652 5650 5650 5651 5651 5652 5653 5652 5651 5652 5652 5651 5652 5652 5650 5649 5648 5649 5649 5648 5648 5650 5651 5653 5654 5655 5656 5658 5658 5658 5659 5660 5661 5662 5664 5665 5666 5667 5668 5669 5670 5671 5672 5673 5674 5675 5676 5677 5679 5680 5680
5647 5646 5646 5645 5645 5645 5646 5646 5647 5646 5647 5647 5647 5647 5646 5644 5643 5643 5644 5644 5643 5643 5644 5645 5647 5648 5648 5649 5651 5652 5653 5654 5654 5655 5657 5658 5659 5659 5660 5661 5662 5664 5665 5665 5666 5667 5668 5669 5671 5672 5673 5673
5641 5640 5640 5640 5640 5640 5640 5639 5640 5640 5641 5642 5642 5641 5639 5639 5639 5638 5639 5639 5638 5638 5638 5640 5642 5643 5642 5644 5646 5647 5647 5648 5649 5649 5650 5651 5652 5653 5654 5655 5656 5657 5658 5658 5659 5661 5661 5662 5664 5665 5666 5667
5635 5635 5634 5634 5634 5634 5634 5634 5634 5634 5634 5635 5635 5634 5633 5634 5634 5632 5632 5633 5632 5632 5633 5634 5637 5638 5637 5638 5640 5640 5641 5642 5643 5643 5644 5645 5646 5647 5648 5649 5650 5651 5651 5652 5653 5654 5655 5656 5657 5658 5660 5661
5630 5629 5628 5627 5628 5628 5628 5628 5629 5628 5627 5628 5628 5628 5627 5628 5627 5626 5626 5627 5627 5627 5628 5628 5630 5631 5630 5631 5632 5633 5634 5635 5637 5637 5638 5639 5640 5641 5641 5643 5645 5645 5645 5646 5647 5648 5649 5651 5652 5653 5655 5656
5624 5624 5623 5621 5621 5621 5621 5623 5623 5621 5621 5622 5623 5622 5622 5622 5622 5621 5621 5622 5621 5621 5621 5621 5622 5623 5623 5623 5624 5625 5627 5629 5630 5630 5631 5632 5633 5634 5635 5636 5639 5638 5639 5640 5641 5642 5644 5644 5645 5647 5649 5650
5619 5618 5617 5616 5615 5615 5615 5616 5616 5615 5616 5616 5617 5617 5617 5616 5616 5615 5615 5616 5615 5615 5614 5614 5614 5615 5615 5616 5616 5618 5620 5622 5623 5623 5624 5625 5626 5627 5628 5629 5632 5632 5632 5634 5635 5636 5637 5638 5639 5641 5643 5644
5612 5612 5611 5610 5609 5609 5609 5609 5609 5609 5609 5609 5611 5611 5609 5608 5608 5608 5608 5609 5608 5607 5608 5607 5607 5608 5608 5609 5610 5611 5613 5614 5615 5617 5617 5618 5618 5621 5621 5622 5624 5626 5626 5627 5629 5630 5631 5632 5634 5635 5636 5637
5605 5605 5604 5604 5603 5602 5602 5602 5602 5603 5602 5602 5603 5603 5601 5601 5601 5601 5601 5601 5602 5601 5601 5602 5601 5601 5602 5604 5604 5605 5606 5607 5609 5610 5611 5611 5611 5613 5614 5615 5617 5620 5620 5620 5622 5624 5624 5625 5627 5628 5628 5630
Wind_Speed
32 34 38 43 45 45 46 46 46 45 44 45 44 42 41 42 44 44 45 48 52 59 65 69 68 66 64 61 57 52 49 47 45 44 42 42 41 40 40 39 39 38 38 38 37 37 37 36 36 36 36 36
32 32 34 38 42 43 44 46 46 44 42 42 41 41 40 39 40 41 44 47 50 57 64 66 65 63 60 57 54 51 50 48 45 43 42 42 42 41 41 41 40 39 39 39 38 38 38 38 38 38 37 37
33 32 32 32 34 35 37 38 40 39 35 33 34 35 37 37 38 40 43 46 49 54 58 60 59 56 55 52 50 49 49 47 44 43 43 43 43 42 42 42 41 41 40 40 40 39 39 39 38 38 38 38
32 32 33 32 31 31 32 32 34 35 31 28 28 29 31 34 37 40 43 45 48 51 53 54 53 52 51 49 48 48 47 45 44 43 43 43 43 43 42 42 42 42 41 41 41 40 40 40 39 39 38 38
33 32 33 35 35 33 33 32 31 31 30 29 28 28 28 30 34 37 39 43 47 49 49 50 51 50 49 47 46 45 45 44 43 43 43 43 43 43 43 42 42 42 42 41 41 41 40 40 40 39 39 40
37 35 34 36 38 38 38 36 33 31 30 30 30 29 28 28 31 32 34 37 41 44 44 45 45 45 45 44 42 42 42 42 42 43 43 42 42 42 43 43 43 43 42 42 41 41 41 40 41 41 41 41
38 39 38 38 39 40 40 39 37 35 35 34 34 33 32 31 31 32 32 33 35 39 40 39 38 38 39 39 39 39 39 39 39 40 40 40 41 41 42 43 43 43 42 42 41 41 41 41 42 42 42 42
38 39 41 41 41 40 41 41 39 39 39 39 38 38 38 37 36 35 35 35 35 37 38 38 38 38 39 39 40 39 39 38 38 38 39 40 41 42 43 43 43 43 43 42 42 42 42 42 43 43 43 43
39 38 40 41 42 41 42 43 42 42 42 41 40 40 40 41 40 40 40 40 39 38 38 39 39 40 41 42 42 41 41 40 40 40 41 42 43 44 44 44 44 44 44 43 43 43 43 43 44 44 45 45
41 40 40 41 42 43 44 45 43 44 44 42 42 42 42 43 43 43 43 42 42 41 40 40 39 39 40 41 41 41 41 41 41 42 43 44 44 44 44 44 44 44 43 43 43 43 43 44 44 45 46 46
44 43 43 42 44 46 47 48 46 44 45 45 44 44 45 45 45 45 44 44 44 43 41 41 41 40 41 41 41 41 41 42 43 43 44 44 44 44 44 44 43 43 43 43 43 44 44 45 45 45 46 47
41 42 43 45 47 49 49 50 49 47 48 48 47 46 47 47 47 46 46 45 45 44 43 43 43 43 43 43 43 43 43 43 44 45 45 45 45 45 45 44 44 44 43 44 44 44 45 45 46 46 47 48
40 41 43 45 47 50 51 51 50 51 52 50 49 49 49 48 48 48 48 47 45 44 44 44 45 45 45 45 45 45 45 45 45 46 46 46 46 46 45 45 45 45 45 45 46 46 47 47 48 48 49 49
42 43 43 45 46 48 51 51 51 53 53 52 52 52 51 49 48 47 47 47 46 45 45 46 47 47 47 47 47 47 47 46 46 46 45 45 45 46 46 46 46 47 47 47 48 48 49 49 50 50 51 51
42 44 44 45 47 48 50 50 50 53 54 55 55 56 56 53 50 48 47 47 47 47 47 48 49 49 50 50 49 49 48 47 47 46 45 45 46 46 47 47 48 48 49 49 49 50 50 51 51 51 52 52
42 43 43 44 45 47 47 46 46 47 49 51 54 56 58 57 55 52 50 49 49 49 50 50 51 51 51 51 50 50 49 48 47 47 47 47 47 48 48 49 50 50 50 50 51 51 51 52 52 53 53 53
43 43 43 44 44 44 44 42 41 41 42 43 46 50 52 53 52 52 51 51 50 51 51 52 52 53 53 52 50 49 49 49 49 49 49 49 49 50 50 51 51 51 52 52 52 52 53 53 53 54 54 54
43 43 43 43 44 44 44 43 42 41 42 42 42 43 45 46 46 47 48 49 50 50 51 51 52 52 52 52 51 50 50 51 51 51 51 52 52 52 52 52 53 53 53 54 54 54 54 54 54 55 55 55
42 42 42 42 44 45 43 42 42 43 44 45 44 44 44 44 45 46 46 47 48 49 49 50 50 51 51 52 52 52 52 53 53 54 54 54 54 54 54 54 54 55 55 55 55 55 55 55 55 55 55 55
42 42 42 42 44 43 41 41 41 42 45 46 45 46 46 46 46 47 47 48 48 48 49 49 50 51 51 52 53 53 54 54 55 55 56 55 55 55 55 55 55 55 55 55 55 55 55 55 55 55 55 55
43 43 43 43 44 44 44 45 45 46 47 47 46 47 49 48 47 48 49 49 50 50 51 51 52 52 52 53 54 54 55 55 56 56 56 56 55 55 55 55 55 55 55 55 55 55 55 55 55 55 55 55
43 44 45 45 45 46 46 46 47 48 47 46 48 49 50 49 49 51 51 52 53 54 54 54 54 54 54 54 54 55 56 56 56 56 56 55 55 54 54 54 54 54 54 54 54 54 54 54 54 54 54 55
43 44 46 47 47 47 47 47 47 48 47 46 48 49 48 49 51 53 53 54 56 56 57 56 56 56 55 55 55 55 56 56 56 55 55 54 54 54 54 54 54 54 53 53 53 53 53 54 54 54 54 54
42 43 45 46 48 48 49 49 49 49 49 49 50 49 48 49 51 53 53 54 56 57 57 56 55 56 56 55 54 54 54 54 54 54 54 54 53 53 53 53 52 52 52 52 52 52 52 53 53 53 54 54
41 42 44 45 46 47 49 50 50 51 51 51 52 51 51 50 52 54 54 54 56 57 57 56 53 53 53 52 51 50 50 50 51 51 51 51 50 50 50 50 50 50 51 51 51 51 52 52 53 53 54 54
41 42 44 45 45 47 48 50 50 51 52 53 53 53 54 53 54 57 57 56 57 57 57 55 52 51 51 51 50 50 50 49 49 49 49 49 49 49 49 49 49 49 50 50 51 51 52 53 53 54 54 54
41 42 44 45 45 46 48 49 50 51 53 53 54 55 56 56 57 59 59 57 57 56 55 55 53 51 52 53 52 52 51 50 49 49 50 50 49 50 50 50 50 50 51 51 51 52 53 53 53 54 54 54
43 43 44 46 46 47 47 47 49 51 52 53 54 55 57 57 58 59 58 56 57 56 55 56 55 54 55 55 55 55 53 52 50 50 50 50 51 51 51 51 51 51 52 52 53 53 54 54 55 56 56 55
46 46 46 47 48 48 48 48 49 50 51 52 52 54 56 56 56 57 57 57 57 57 58 59 59 58 58 58 58 58 56 54 52 52 51 52 52 52 52 52 52 53 53 54 54 54 55 56 57 57 56 55
50 49 49 49 50 50 50 50 50 50 51 52 52 54 56 57 57 58 59 59 60 60 60 61 62 61 60 60 60 60 59 58 57 55 54 54 54 54 54 55 54 54 55 55 55 55 56 57 57 57 57 56
54 54 53 53 52 53 53 52 52 52 53 54 54 55 57 58 59 60 60 61 61 61 62 62 62 62 62 61 61 62 61 61 60 59 57 57 57 57 57 57 57 56 56 57 57 57 58 58 58 59 58 58
Wind_Direction
253 248 244 243 243 243 245 250 252 253 254 255 256 255 252 253 254 255 254 249 245 243 239 234 231 229 227 226 226 225 225 225 225 227 228 229 230 231 233 234 235 235 236 237 238 239 240 242 243 245 246 248
258 258 254 250 250 250 250 252 254 255 256 255 254 253 251 251 254 257 255 249 245 241 237 234 231 228 227 225 225 226 226 226 225 227 229 230 231 232 233 234 235 235 236 237 238 239 241 242 243 244 246 247
258 259 259 256 255 256 256 257 258 256 256 254 250 251 251 250 252 255 254 249 244 239 235 233 232 228 226 224 225 226 226 226 225 226 228 230 231 233 234 235 235 236 236 237 239 240 241 241 242 243 245 246
257 256 256 257 257 257 258 261 260 254 250 250 249 249 249 248 249 250 248 245 242 239 236 234 233 230 228 226 225 226 226 226 225 226 228 229 231 233 235 235 236 236 236 237 238 239 240 240 241 243 244 246
258 256 255 256 257 257 258 260 259 250 244 246 247 247 248 246 245 244 243 242 240 240 239 236 234 231 229 228 228 228 228 227 228 229 230 230 231 232 233 234 235 235 236 236 237 238 239 240 241 243 244 246
263 261 258 256 257 258 258 258 258 252 246 245 245 245 245 243 240 240 240 239 238 238 238 237 235 232 230 229 229 229 229 230 231 232 232 232 232 232 233 233 233 234 235 236 237 239 240 241 242 244 245 246
266 267 265 262 259 259 260 259 258 257 254 252 250 250 248 244 240 238 238 239 238 237 235 235 234 235 235 233 232 231 232 233 234 235 236 236 236 237 237 237 237 237 238 239 240 241 242 243 244 245 246 247
262 266 268 267 264 263 263 262 260 258 258 257 255 254 253 250 246 243 240 239 239 239 238 236 235 235 236 237 238 238 238 238 239 240 241 242 243 243 243 244 244 244 243 243 244 244 245 245 246 246 247 248
255 260 262 261 263 266 266 264 263 261 259 258 257 256 255 254 252 250 247 244 242 241 241 240 239 238 238 238 239 240 241 242 243 244 245 246 246 247 247 247 247 247 247 247 247 247 248 248 248 248 249 249
250 252 254 253 255 262 264 264 263 262 261 259 258 257 256 254 254 253 252 251 248 247 246 245 244 242 242 242 241 242 244 246 247 248 248 249 249 249 249 249 248 248 248 249 249 250 250 251 251 251 251 251
248 247 248 247 247 251 256 260 262 263 264 263 261 259 258 257 255 254 253 252 252 252 251 250 248 246 246 246 246 247 249 250 251 250 250 250 250 250 249 249 249 249 249 250 250 251 251 252 252 252 253 253
249 250 250 249 250 252 253 257 262 265 265 265 264 262 260 259 257 256 255 254 254 253 253 253 252 251 250 249 249 250 250 251 251 249 248 249 249 249 248 248 249 249 250 250 251 251 252 253 254 254 255 255
247 249 249 250 254 257 258 259 262 264 264 264 265 264 263 260 257 257 256 255 255 255 254 254 254 254 252 251 251 251 251 250 250 248 246 246 246 246 246 247 249 250 251 252 253 253 253 254 255 256 256 257
247 248 248 249 251 254 257 259 260 261 262 263 264 264 264 262 258 257 256 255 256 256 255 254 254 253 252 251 251 251 250 250 250 249 249 248 248 248 248 249 250 252 253 254 254 255 255 255 256 256 257 257
248 248 248 248 249 252 255 257 258 258 260 262 264 264 264 264 262 259 258 256 256 256 256 255 255 253 252 252 252 252 252 252 253 253 254 254 253 253 253 253 253 254 255 255 256 256 256 256 257 257 257 258
252 250 249 249 248 250 253 255 256 257 258 260 262 262 262 263 261 259 257 255 254 255 255 256 256 256 255 254 254 254 254 255 256 256 256 257 257 256 256 256 256 256 257 257 257 257 257 257 258 258 258 258
259 256 254 254 252 251 252 253 255 256 257 257 258 259 259 260 259 258 257 255 254 254 254 255 256 257 257 257 257 256 256 257 257 257 258 258 258 258 258 258 258 259 259 259 259 259 259 259 259 259 259 259
261 260 260 261 259 257 255 255 256 256 256 255 255 254 255 256 257 257 257 257 257 256 256 257 257 258 259 259 259 259 259 259 259 258 258 258 259 259 259 259 259 260 260 260 261 261 261 261 261 260 260 260
263 262 263 263 263 264 264 262 261 261 261 259 257 256 255 255 256 256 257 258 259 259 259 259 259 259 260 260 261 261 260 260 260 260 259 259 259 259 259 259 260 260 260 261 261 261 261 261 261 261 261 261
264 263 262 260 261 263 263 262 261 262 262 261 261 260 258 257 257 257 257 257 258 258 258 258 258 258 258 259 259 260 260 260 260 260 260 260 260 260 259 259 259 259 260 260 260 260 261 261 261 261 261 261
266 264 262 260 259 258 258 257 257 257 258 259 260 261 260 259 260 259 258 258 257 257 256 256 255 255 256 256 257 257 257 257 257 258 258 258 259 259 259 259 259 259 259 259 259 260 260 260 260 260 261 261
268 266 264 262 260 258 257 258 258 257 257 258 258 259 261 262 261 261 260 259 258 257 256 256 255 255 255 256 256 256 257 257 257 257 257 258 258 258 258 258 259 258 258 259 259 259 260 260 260 260 260 260
270 269 267 265 263 261 260 258 257 257 257 257 258 259 260 260 260 259 258 259 259 258 258 257 258 258 258 257 257 258 259 259 259 260 260 260 260 260 260 260 260 260 260 260 260 260 260 260 260 260 259 259
269 269 268 268 267 266 264 260 257 257 257 257 258 259 258 257 258 258 258 258 259 260 260 259 259 260 260 260 260 261 261 262 262 263 262 262 262 262 261 261 261 261 260 260 260 260 259 259 258 258 257 257
268 268 268 268 268 268 266 264 261 260 259 258 257 256 256 257 258 260 259 259 259 260 260 260 260 261 262 262 262 262 262 262 262 262 262 262 261 261 260 260 259 259 258 258 257 257 256 255 255 255 255 255
267 267 267 267 267 267 266 266 265 263 260 258 256 255 256 256 257 259 259 258 259 260 261 261 261 262 263 263 262 261 260 260 260 260 260 260 259 259 258 257 257 256 256 255 255 254 253 253 253 253 254 255
266 265 266 266 266 265 265 266 266 264 263 261 260 259 258 257 256 258 259 259 260 261 262 262 261 260 261 261 260 259 258 258 258 258 258 258 258 257 257 256 256 255 255 254 254 253 253 253 253 254 254 255
265 264 264 264 264 264 264 264 265 265 265 266 266 264 262 261 260 260 260 260 260 261 261 261 260 258 258 258 258 257 257 257 256 256 257 257 257 256 256 255 254 254 253 253 253 253 253 253 253 254 255 255
265 264 263 262 263 263 263 263 263 264 265 266 266 265 264 262 260 259 259 258 259 259 259 259 258 257 256 257 257 257 256 256 255 255 255 255 255 255 255 254 253 253 253 252 252 252 252 252 253 254 255 255
265 263 262 261 261 262 262 262 262 263 263 264 264 263 262 260 259 258 259 259 258 258 257 257 258 258 257 257 257 257 256 256 255 254 254 254 254 254 254 253 253 252 253 252 252 253 253 254 255 255 255 256
264 262 261 260 260 260 261 261 261 261 261 261 262 261 261 260 261 261 261 261 260 259 259 259 259 259 259 258 258 258 258 257 256 255 253 253 254 254 253 254 254 253 253 253 253 253 254 254 255 256 256 257